Regional Weather Roundup
Issued by NWS

Home | Current Version | Previous Version | Text Only | Print | Product List | Glossary Off
Versions: 1 2 3 4 5 6 7 8 9 10 11 12 13 14 15 16 17 18 19 20 21 22 23 24 25 26 27 28 29 30 31 32 33 34 35 36 37 38 39 40 41 42 43 44 45 46 47 48 49 50

755
ASUS43 KLMK 021410
RWRKY
KENTUCKY REGIONAL WEATHER ROUNDUP
NATIONAL WEATHER SERVICE LOUISVILLE KY
1000 AM EDT MON MAY 02 2016

NOTE "FAIR" INDICATES FEW OR NO CLOUDS BELOW 12,000 FEET
WITH NO SIGNIFICANT WEATHER AND/OR OBSTRUCTIONS TO VISIBILITY.

KYZ001>023-026-027-061>063-070>075-021500-
WESTERN AND SOUTH CENTRAL KENTUCKY

CITY           SKY/WX    TMP DP  RH WIND       PRES   REMARKS
PADUCAH        CLOUDY    59  50  72 NE6       30.02R
HENDERSON      CLOUDY    57  48  72 CALM      29.98F
OWENSBORO      CLOUDY    59  53  80 NW9       30.02F
HOPKINSVILLE   TSTM      59  54  82 VRB2      30.03R
BOWLING GREEN  CLOUDY    65  53  65 NE5       30.01F
GLASGOW        CLOUDY    64  55  73 CALM      30.01F
$$

KYZ024-025-028>034-038-045-046-053-021500-
NORTH CENTRAL KENTUCKY

CITY           SKY/WX    TMP DP  RH WIND       PRES   REMARKS
LOUISVILLE/SDF PTSUNNY   63  53  70 W6        30.00F
LOUISVILLE/LOU PTSUNNY   62  53  72 W9        30.00F
FORT KNOX      PTSUNNY   61  54  78 VRB2      29.99F
$$

KYZ035>037-039>044-047>052-055>060-089>105-021500-
NORTHEAST KENTUCKY

CITY           SKY/WX    TMP DP  RH WIND       PRES   REMARKS
LEXINGTON      SUNNY     65  57  75 SW7       30.00F
COVINGTON      CLOUDY    63  55  77 W9        29.99R
FRANKFORT      SUNNY     65  55  70 VRB5      29.99S
$$

KYZ054-064>069-076>088-106>120-021500-
SOUTHEAST KENTUCKY

CITY           SKY/WX    TMP DP  RH WIND       PRES   REMARKS
JACKSON        CLOUDY    67  61  81 CALM      30.02F
LONDON         CLOUDY    67  61  81 S6        30.02S
SOMERSET       CLOUDY    66  61  82 CALM      30.02S
MIDDLESBORO    CLOUDY    71  65  80 NE5       30.03F
MONTICELLO     CLOUDY    68  63  84 NE8       30.02F
$$





USA.gov is the U.S. government's official web portal to all federal, state and local government web resources and services.